FENGYUN 1C DEB, 30311

Orbit data source: Space-Track

FENGYUN 1C DEB, 30311 is space debris in SSO originally from a launch on Mon, 10 May 1999 UTC launched from the Taiyaun Space Center, China (TSC). Fengyun 1C debris stems from the Chinese weather satellite Fengyun-1C, which was intentionally destroyed by a Chinese anti-satellite missile in 2007. This event dramatically increased the amount of space debris, with thousands of trackable fragments posing hazards to satellites and human spaceflight. The Fengyun 1C debris cloud has become a focal point in discussions about space sustainability and the need for international regulations to prevent the creation of new debris.

Loading next visibility...
Identifier
30311, 1999-025ZY
Orbit
SSO
Country
Flag of CNCN / PRC
Related business
Manufacturer
Unknown
Mission
Spacecraft
Bus & Motor
Unknown
Mass
Unknown
Launch date (UTC)
1999-05-10 (27 years ago)
Launch vehicle
Unknown
Launch site
Taiyaun Space Center, China (TSC)
Object type
Payload
Rocket body
Debris
Shape & HBR
Unknown shape, 0.1 m
Radar Cross Section
Small (<0.1 m²)

Expand to show TLE details & history
Last TLE update: 6 hours ago

TLE from 6 hours ago
0 FENGYUN 1C DEB
1 30311U 99025ZY  26124.18966340  .00000387  00000-0  38639-3 0  9995
2 30311  99.1335 219.5632 0165436 179.0017 181.1496 13.78013710969227
Epoch: 2026-05-04T04:33Z
TLE epoch observation values (Epoch: 2026-05-04T04:33:06.917Z)
Latitude
-0.00009°
Longitude
-70.79803°
Altitude
1,095.364 km
Speed
7.244 km/s
True Right ascension
14h 38m 15s
True Declination
0° 00' 00"
Sunlit
Object was in full shadow at epoch
Visualization orbit readout
Latitude
Unknown
Longitude
Unknown
Altitude
Unknown
Speed
Unknown
Apparent Right ascension
Unknown
Apparent Declination
Unknown
Sunlit
N/A
Visualization observer readout
Local Sidereal Time
18:18:14
Azimuth
Unknown
Elevation
Unknown
Doppler factor
Unknown
Orbital elements
Apogee altitude
1,089.709 km
Perigee altitude
846.64 km
Semi-major axis
7,346.312 km
Eccentricity
0.01654
Inclination
99.1335°
RAAN
219.5632°
Arg. of periapsis
179.0017°
True anomaly
181.11234°
Mean anomaly
181.1496°
Eccentric anomaly
181.13089°
Mean motion
3.44698 °/min
Orbital period
104.44 mins
BSTAR
0.00038639
Loading maneuver chart data...
Computing Atmospheric mass density...

Documentation

Showing up to 5 results
|